This demonstration page uses our WeatherBlox Daily Observations layout. Learn more.

Left ArrowRight Arrow

Hourly Observations for September 2, 2019

Temp ( °F °C ) Dew Point ( °F °C ) Humidity (%) Winds ( mph kmh ) Pressure ( in mb ) Visibility ( mi km ) Precip ( " mm )
12:54 am 00:54 Clear 68 20 65 18.3 90 90 S 5 7 30.07 1018 10 16 0.00 0.00
1:54 am 01:54 Clear 67 19.4 64 17.8 91 91 S 8 13 30.07 1018 10 16 0.00 0.00
2:54 am 02:54 Clear 66 18.9 64 17.8 93 93 SSE 6 9 30.07 1018 10 16 0.00 0.00
3:54 am 03:54 Clear 66 18.9 63 17.2 90 90 SSE 5 7 30.06 1018 10 16 0.00 0.00
4:54 am 04:54 Clear 66 18.9 63 17.2 90 90 SSE 3 6 30.06 1018 10 16 0.00 0.00
5:54 am 05:54 Clear 67 19.4 64 17.8 91 91 SSE 6 9 30.06 1018 10 16 0.00 0.00
6:54 am 06:54 Clear 68 20 65 18.3 90 90 SSE 5 7 30.06 1018 10 16 0.00 0.00
7:54 am 07:54 Sunny 68 20 65 18.3 90 90 S 7 11 30.07 1018 10 16 0.00 0.00
8:54 am 08:54 Sunny 70 21.1 67 19.4 90 90 S 14 22 30.04 1017 10 16 0.00 0.00
9:54 am 09:54 Mostly Sunny 76 24.4 69 20.6 79 79 S 13 20 30.04 1017 10 16 0.00 0.00
10:54 am 10:54 Sunny 80 26.7 71 21.7 74 74 S 17 28 30.00 1016 10 16 0.00 0.00
11:54 am 11:54 Sunny 84 28.9 71 21.7 65 65 S 18 30 29.99 1016 10 16 0.00 0.00
12:54 pm 12:54 Sunny 86 30 72 22.2 63 63 SSE 22 35 29.97 1015 10 16 0.00 0.00
1:54 pm 13:54 Mostly Sunny 88 31.1 73 22.8 61 61 SSE 18 30 29.93 1014 10 16 0.00 0.00
2:54 pm 14:54 Sunny 89 31.7 73 22.8 59 59 S 23 37 29.90 1013 10 16 0.00 0.00
3:54 pm 15:54 Sunny 89 31.7 74 23.3 61 61 S 26 43 29.87 1012 10 16 0.00 0.00
4:54 pm 16:54 Sunny 89 31.7 73 22.8 59 59 S 21 33 29.86 1011 10 16 0.00 0.00
5:54 pm 17:54 Sunny 89 31.7 73 22.8 59 59 S 22 35 29.85 1011 10 16 0.00 0.00
6:54 pm 18:54 Sunny 86 30 73 22.8 65 65 S 16 26 29.83 1010 10 16 0.00 0.00
7:54 pm 19:54 Sunny 83 28.3 72 22.2 70 70 S 15 24 29.83 1010 10 16 0.00 0.00
8:54 pm 20:54 Clear 82 27.8 72 22.2 72 72 S 16 26 29.82 1010 10 16 0.00 0.00
9:54 pm 21:54 Clear 80 26.7 71 21.7 74 74 S 15 24 29.82 1010 10 16 0.00 0.00
10:54 pm 22:54 Clear 80 26.7 71 21.7 74 74 S 17 28 29.82 1010 10 16 0.00 0.00
11:54 pm 23:54 Clear 80 26.7 70 21.1 71 71 S 18 30 29.81 1010 10 16 0.00 0.00

Powered by AerisWeather